Regional Weather Roundup
Issued by NWS

Home | Current Version | Previous Version | Text Only | Print | Product List | Glossary On
Versions: 1 2 3 4 5 6 7 8 9 10 11 12 13 14 15 16 17 18 19 20 21 22 23 24 25 26 27 28 29 30 31 32 33 34 35 36 37 38 39 40 41 42 43 44 45 46 47 48 49 50
000
ASUS44 KBMX 021510
RWRAL

ALABAMA REGIONAL WEATHER ROUNDUP
NATIONAL WEATHER SERVICE BIRMINGHAM AL
1000 AM CDT SUN AUG 02 2015

NOTE: "FAIR" INDICATES FEW OR NO CLOUDS BELOW 12,000 FEET
WITH NO SIGNIFICANT WEATHER AND/OR OBSTRUCTIONS TO VISIBILITY.

THE REMARK "TC" DENOTES TEMPERATURE IN DEGREES CELSIUS.

ALZ001>011-014-016>018-020-021600-
NORTH ALABAMA

CITY           SKY/WX    TMP DP  RH WIND       PRES   REMARKS
MUSCLE SHOALS  SUNNY     85  67  54 NW3       30.01S
HUNTSVILLE     MOSUNNY   85  65  51 CALM      30.00R
DECATUR        SUNNY     83  65  54 CALM      30.00S
HALEYVILLE     FAIR      84  68  58 CALM      30.03S
GADSDEN        SUNNY     84  63  48 N3        29.97S
$$

ALZ012-013-022-023-030>036-040>044-021600-
WEST CENTRAL ALABAMA

CITY           SKY/WX    TMP DP  RH WIND       PRES   REMARKS
TUSCALOOSA     SUNNY     87  66  49 NE5       29.96S
$$

ALZ015-024>027-033>036-040>044-021600-
CENTRAL ALABAMA

CITY           SKY/WX    TMP DP  RH WIND       PRES   REMARKS
BIRMINGHAM     MOSUNNY   86  63  45 E7        29.99S
MONTGOMERY     SUNNY     87  66  49 NE7       29.93S
SHELBY CO ARPT SUNNY     85  64  49 NE8       29.97S
MAXWELL AFB    SUNNY     86  66  51 N8        29.93S
GREENVILLE     FAIR      89  67  47 NE7       29.92S HX  92
$$

ALZ019-021-028-029-037-038-045>048-021600-
EAST CENTRAL ALABAMA

CITY           SKY/WX    TMP DP  RH WIND       PRES   REMARKS
ANNISTON       SUNNY     83  65  54 E6        29.97S
ALEXANDER CITY SUNNY     84  63  49 N6        29.96S
AUBURN         SUNNY     84  68  58 NE6       29.97R
$$

ALZ051>064-021600-
SOUTHWEST ALABAMA

CITY           SKY/WX    TMP DP  RH WIND       PRES   REMARKS
MOBILE         PTSUNNY   86  74  67 NE8       29.92S HX  94
BROOKLEY FIELD MOSUNNY   87  73  62 N8        29.92S HX  94
EVERGREEN      SUNNY     89  70  53 N8        29.92S HX  94
$$

ALZ049-050-065>069-021600-
SOUTHEAST ALABAMA

CITY           SKY/WX    TMP DP  RH WIND       PRES   REMARKS
DOTHAN         MOSUNNY   82  73  74 NE8       29.94R
OZARK          SUNNY     84  74  71 N9        29.90R HX  91
TROY           SUNNY     87  74  64 NE8       29.93R HX  95
EUFAULA        FAIR      86  75  69 NE6       29.91R HX  95
$$


USA.gov is the U.S. government's official web portal to all federal, state and local government web resources and services.